GPS BIIF-7

Last updated on Sun Jul 06 2025 00:02:32 GMT+0000 (Coordinated Universal Time)

1 40105U 14045A 25186.04207664 -.00000044 00000+0 00000+0 0 9992 2 40105 55.1277 102.3128 0030124 115.9002 244.4127 2.00562443 79112
UTC large
Height (km)
Speed (km/s)
/
Latitude / Longitude
Inclination (degrees)
Orbital Period (minutes)
Azimuth
Elevation
Range (km)
Doppler Factor

Next 0 passes for location: London (51.5072 / 0.1276)

Sorry there are no passes over London.